This is the latest recevied weather packets stored in our database for station/object KE8GJZ-2. If no packets are shown the sender has not sent any weather packets the latest 10 day(s).
| Time | Temp. | Humidity | Pressure | Rain* | Wind** | Luminosity | Snow |
|---|---|---|---|---|---|---|---|
| 1777604690 | 3.89° C | 96% | 1015.4 hPa | 0 mm | - | 0 W/m² | - |
| 1777604387 | 3.89° C | 96% | 1015.9 hPa | 0 mm | - | 0 W/m² | - |
| 1777604086 | 3.89° C | 96% | 1015.8 hPa | 0 mm | - | 0 W/m² | - |
| 1777603784 | 3.89° C | 95% | 1016 hPa | 0 mm | - | 0 W/m² | - |
| 1777603480 | 3.89° C | 95% | 1016.1 hPa | 0 mm | - | 0 W/m² | - |
| 1777603176 | 3.89° C | 94% | 1016 hPa | 0 mm | - | 0 W/m² | - |
| 1777602872 | 3.89° C | 94% | 1016.1 hPa | 0 mm | - | 0 W/m² | - |
| 1777602566 | 3.89° C | 95% | 1016.4 hPa | 0 mm | - | 0 W/m² | - |
| 1777602263 | 3.89° C | 95% | 1016.3 hPa | 0 mm | - | 0 W/m² | - |
| 1777601958 | 4.44° C | 94% | 1016 hPa | 0 mm | - | 0 W/m² | - |
| 1777601653 | 4.44° C | 93% | 1016 hPa | 0 mm | - | 0 W/m² | - |
| 1777601349 | 4.44° C | 93% | 1015.7 hPa | 0 mm | - | 0 W/m² | - |
| 1777601045 | 4.44° C | 91% | 1015.7 hPa | 0 mm | - | 0 W/m² | - |
| 1777600743 | 5° C | 88% | 1015.8 hPa | 0 mm | - | 0 W/m² | - |
| 1777600439 | 5° C | 87% | 1015.7 hPa | 0 mm | - | 0 W/m² | - |
| 1777600134 | 5° C | 83% | 1015.6 hPa | 0 mm | - | 0 W/m² | - |
| 1777599830 | 5° C | 83% | 1015.7 hPa | 0 mm | - | 0 W/m² | - |
| 1777599526 | 5° C | 83% | 1015.5 hPa | 0 mm | - | 0 W/m² | - |
| 1777599223 | 5.56° C | 82% | 1015.3 hPa | 0 mm | - | 0 W/m² | - |
| 1777598919 | 5.56° C | 80% | 1015.2 hPa | 0 mm | - | 0 W/m² | - |
| 1777598617 | 5.56° C | 79% | 1015.5 hPa | 0 mm | - | 0 W/m² | - |
| 1777598312 | 5.56° C | 80% | 1015.2 hPa | 0 mm | - | 0 W/m² | - |
| 1777598010 | 6.11° C | 79% | 1015.3 hPa | 0 mm | - | 0 W/m² | - |
| 1777597709 | 6.11° C | 75% | 1015.1 hPa | 0 mm | - | 0 W/m² | - |
| 1777597405 | 6.11° C | 76% | 1015.1 hPa | 0 mm | - | 0 W/m² | - |
* Rain latest hour (hover to see other rain measurements)
** Current wind speed in m/s (hover to see current wind gust speed)